User: anonymous   Login
Location: Unspecified
(0.0000°N, 0.0000°E)
Time: 14:58:09
(UTC+00:00)
Language:

Courier 1B Rocket - Orbit

View from above orbital plane
View from above orbital plane
View from above satellite
View from above satellite

Ground track
Ground track

The orbit data is extracted from the following two-line orbital elements,

1    59U 60013B   18172.84089870 +.00000100 +00000-0 +14765-4 0  9995
2    59 028.2509 350.6041 0189298 307.5749 050.7741 13.52961157848120
Epoch (UTC): 21 June 2018 20:10:53
Eccentricity: 0.0189298
inclination: 28.2509°
perigee height: 920 km
apogee height: 1202 km
right ascension of ascending node: 350.6041°
argument of perigee: 307.5749°
revolutions per day: 13.52961157
mean anomaly at epoch: 50.7741°
orbit number at epoch: 84812

The dashed part of the orbit path shows where the satellite is in the earth's shadow,  

DLR